Wind_Speed
43 42 41 41 41 43 42 39 37 36 34 34 32 31 29 27 25 25 24 22 21 19 18 18 16 16 15 15 14 14 13 13 13 12 12 12 12 11 11 11 11 11 11 11 11 11 11 11 11
42 42 41 42 42 43 41 38 38 37 35 34 34 33 31 29 27 27 25 23 22 21 20 19 18 18 17 16 16 15 15 15 14 14 13 13 13 13 13 13 13 13 12 12 12 12 12 12 12
41 41 41 42 42 42 39 39 39 37 36 35 34 33 31 30 29 27 25 24 23 22 21 21 20 19 18 18 17 17 16 16 16 15 15 15 15 15 15 15 15 14 14 14 14 14 14 14 14
41 40 41 41 41 40 39 39 40 38 36 36 35 33 32 32 30 28 26 25 24 23 22 22 21 20 20 19 19 18 18 18 18 17 17 17 17 16 16 16 16 16 16 16 16 16 16 16 16
40 41 41 41 39 39 38 39 37 37 37 36 35 33 32 32 30 29 27 26 25 24 23 22 22 21 21 21 20 20 20 20 20 19 19 19 19 18 18 18 18 18 19 18 18 18 18 18 18
40 41 41 40 38 38 39 39 37 36 37 36 35 34 33 32 31 29 27 27 26 25 24 24 23 23 23 22 22 22 21 21 21 21 21 21 21 21 21 21 21 21 21 21 21 21 21 21 21
39 40 40 39 38 38 39 38 36 36 37 37 35 35 34 33 31 30 29 28 27 26 25 25 24 24 24 24 24 24 23 23 23 23 23 23 23 23 23 24 23 23 23 23 23 23 23 23 23
36 38 38 38 38 38 38 37 36 36 36 36 36 34 33 32 32 31 30 29 28 27 26 26 25 25 25 25 25 25 25 25 25 25 25 25 25 25 25 25 26 26 26 26 25 25 25 25 24
34 36 37 37 37 36 37 36 36 36 36 36 35 34 33 32 31 31 31 30 30 29 28 28 27 27 27 27 27 27 27 27 27 27 27 27 27 27 27 27 27 28 28 28 27 27 27 27 26
31 33 34 35 36 35 35 35 35 35 35 35 34 34 33 32 31 31 31 31 30 30 29 29 29 29 28 28 28 28 29 29 29 29 29 29 28 29 29 28 28 28 29 29 29 29 28 28 28
29 32 33 34 34 34 34 34 35 34 34 34 33 32 32 32 32 31 31 31 31 31 30 30 30 30 30 30 30 30 30 30 30 30 30 30 30 30 30 29 29 30 30 30 31 31 30 31 31
27 29 31 32 31 31 32 33 34 35 33 33 32 32 32 32 32 31 31 31 32 31 31 31 31 31 31 31 31 31 31 31 31 31 31 31 31 31 31 31 32 31 31 31 31 32 33 33 33
25 26 28 28 28 28 30 31 32 32 32 32 32 32 32 32 32 31 31 32 32 32 32 32 32 32 32 32 32 31 32 32 32 32 32 32 32 32 33 33 33 33 33 33 33 33 34 34 35
23 24 25 25 25 25 26 28 29 30 31 32 32 32 31 32 32 32 31 31 32 32 32 32 32 32 32 32 32 32 32 33 33 33 33 33 33 33 33 33 34 35 35 35 35 35 35 35 36
21 22 23 23 23 23 24 25 26 27 29 31 31 31 31 32 32 32 31 31 32 32 32 32 32 32 32 32 33 33 32 33 33 33 33 33 33 34 35 35 36 36 36 37 37 37 37 37 38
20 21 22 23 22 22 23 24 24 25 27 29 30 31 31 32 32 32 31 31 31 32 32 32 32 32 32 33 33 33 32 32 32 33 34 34 35 35 36 36 37 37 37 38 39 39 38 38 39
17 19 20 21 21 21 23 23 23 25 26 27 29 30 31 31 31 31 31 31 31 32 32 32 32 32 33 33 33 33 34 34 33 34 35 35 36 36 37 38 38 39 39 39 40 41 40 39 39
14 16 19 20 20 20 22 22 23 24 25 27 28 29 30 30 30 30 30 31 31 31 31 32 32 32 33 33 33 33 33 34 35 35 35 36 36 36 37 38 39 40 40 40 40 40 41 40 41
13 14 16 17 18 20 21 22 23 24 25 25 26 27 29 29 30 30 30 30 31 31 31 32 32 32 32 32 32 33 34 34 35 35 36 36 36 37 38 38 39 40 40 40 40 39 40 40 41
12 12 14 16 17 19 20 21 23 23 24 24 26 27 28 29 29 30 30 30 31 31 31 32 32 32 32 32 33 33 34 34 35 35 35 36 37 38 39 39 38 39 40 39 40 40 40 41 41
10 11 12 14 16 18 19 20 22 23 24 24 25 26 27 28 29 29 29 30 30 31 31 32 32 32 32 32 33 33 34 34 35 35 36 36 37 37 38 39 39 39 40 40 40 40 41 42 41
9 10 11 13 14 16 17 19 20 22 23 24 25 26 27 27 29 29 30 30 31 30 30 30 30 31 31 32 32 33 33 33 34 34 34 35 35 36 37 38 38 38 39 40 40 40 41 42 42
7 9 10 11 13 15 16 18 19 21 22 23 24 26 26 27 28 30 30 31 31 31 31 31 31 31 32 32 32 32 32 33 33 33 33 34 34 35 36 37 37 37 38 39 39 40 40 41 41
7 8 10 11 13 14 14 16 18 19 21 23 24 25 26 26 27 29 30 30 31 32 32 32 32 32 32 31 32 32 32 32 33 33 34 34 35 35 35 36 37 37 38 38 39 39 39 40 40
7 8 10 11 12 13 14 15 16 18 19 20 22 23 25 26 27 28 29 30 31 32 32 32 33 33 32 32 32 32 32 33 33 34 34 35 35 35 35 36 37 37 37 37 38 38 39 39 39
7 8 9 11 12 12 14 15 15 17 18 19 21 22 24 25 26 28 29 30 31 31 32 32 32 33 33 33 33 33 33 34 34 35 35 36 36 37 37 36 36 36 37 37 37 37 38 38 38
9 9 10 11 12 12 13 13 14 16 18 19 20 22 23 24 26 27 29 30 31 31 31 32 32 32 32 33 34 34 35 35 35 36 37 37 37 37 37 36 36 36 37 37 37 36 36 37 38
10 10 11 12 13 13 13 13 14 15 17 18 20 22 23 24 25 27 28 29 30 30 31 32 32 32 33 33 34 34 35 36 36 37 37 37 37 37 37 37 37 37 37 36 36 37 37 37 38
11 11 12 13 14 14 15 14 15 16 17 19 20 21 23 24 25 26 27 27 28 29 30 31 31 32 32 33 34 35 36 36 37 37 37 37 38 38 38 37 37 37 36 36 36 36 36 36 36
12 13 14 14 15 16 16 15 16 17 18 19 20 21 21 22 23 24 25 26 27 28 29 30 30 31 32 32 33 34 35 36 37 37 37 38 38 38 38 37 37 37 36 36 36 36 36 36 37
Wind_Direction
232 231 231 230 230 230 231 230 229 229 228 228 228 228 228 230 232 235 235 235 236 236 239 242 245 247 249 251 253 255 257 258 260 263 265 267 267 267 268 269 270 270 270 272 273 272 271 271 270
230 229 228 227 228 229 229 229 228 228 228 228 228 227 227 229 232 235 236 236 237 238 240 243 246 248 250 251 253 255 257 259 260 262 265 267 268 268 268 269 270 272 272 272 274 275 274 273 272
228 227 226 226 227 227 227 227 228 228 228 228 229 228 228 229 232 235 237 237 237 238 240 244 246 249 251 252 253 255 257 258 260 262 264 266 268 269 269 269 270 271 272 272 273 274 275 275 273
226 225 224 225 226 225 225 227 229 229 227 228 229 228 228 230 232 234 236 238 238 238 241 244 247 249 252 253 254 256 258 260 261 263 264 266 267 268 270 270 270 270 271 271 272 273 274 274 275
223 223 223 223 224 223 223 224 227 228 227 227 228 228 229 231 233 235 237 239 240 241 242 244 246 249 252 254 256 257 259 261 262 264 265 266 267 268 269 270 270 271 271 272 272 273 274 275 275
221 221 221 221 222 221 222 224 224 226 227 228 228 228 228 231 232 234 237 239 240 242 245 246 248 250 252 254 256 258 260 261 263 264 266 266 267 268 269 270 271 271 272 272 273 273 272 273 274
220 220 220 220 220 220 222 224 225 226 228 228 228 229 229 231 233 235 237 240 241 243 245 246 249 251 253 255 257 259 260 262 264 265 267 267 267 268 269 270 270 271 271 272 272 273 272 272 273
217 218 218 218 219 220 220 222 223 225 229 229 228 229 229 231 233 235 237 239 241 243 245 247 250 253 254 256 257 260 262 263 265 266 268 269 270 270 270 271 271 271 271 272 272 272 272 273 273
216 215 215 215 219 220 219 221 223 225 228 229 229 230 231 232 234 236 237 240 242 245 247 249 252 254 255 257 259 261 263 265 266 268 269 270 271 271 272 272 273 272 271 271 272 272 273 273 273
212 213 212 213 217 218 219 220 223 224 227 228 228 230 232 232 234 236 238 241 243 246 249 251 253 254 257 259 260 262 264 266 267 268 269 270 270 271 271 272 272 272 272 271 271 272 273 273 274
210 211 211 213 216 218 218 219 222 225 227 229 229 230 232 232 234 237 239 242 244 247 249 251 253 255 258 260 261 263 264 266 267 268 268 269 270 271 271 271 272 273 273 273 272 272 272 273 274
207 210 212 214 217 218 218 219 224 226 227 229 229 229 231 233 235 237 240 243 245 247 250 252 255 257 259 261 262 263 265 266 266 267 268 269 270 271 271 272 273 273 273 274 274 272 272 273 273
206 209 212 213 215 217 219 221 224 227 228 228 228 229 232 233 236 239 242 245 246 248 251 254 255 257 259 261 263 262 263 266 267 268 269 269 270 271 272 273 274 274 274 274 274 274 274 274 274
205 209 210 212 216 216 218 221 224 225 227 228 230 230 233 235 238 240 243 246 248 250 252 254 256 258 260 261 262 262 263 265 266 267 268 269 270 271 273 274 275 275 275 275 275 275 274 274 274
200 206 209 211 215 217 218 221 224 226 228 230 232 233 235 237 239 242 245 247 249 251 253 256 258 259 260 262 263 263 264 265 267 268 270 270 271 272 273 275 276 276 277 276 275 275 275 274 273
202 205 208 212 217 220 221 222 223 226 228 231 233 235 237 239 241 244 247 248 250 252 255 257 259 261 263 264 264 265 265 267 268 269 271 272 272 273 274 275 275 276 276 276 275 275 275 274 274
204 209 212 215 218 220 222 223 225 228 231 234 236 237 239 241 243 245 248 250 252 254 256 259 261 263 264 266 266 267 268 269 271 273 273 274 274 274 275 275 275 276 276 275 275 274 274 274 274
207 215 218 220 222 224 226 228 230 232 234 237 239 240 241 244 245 248 251 253 254 256 257 259 261 264 265 266 267 268 270 272 274 275 276 275 276 276 276 276 276 276 276 275 275 274 273 274 275
212 220 224 227 229 231 233 233 234 236 238 240 241 243 245 246 248 250 253 255 256 257 258 260 262 264 266 267 268 269 271 273 275 276 276 276 276 277 277 277 276 275 276 276 275 276 275 275 274
214 223 229 233 235 237 237 236 236 238 240 243 245 247 248 249 250 252 255 256 257 258 260 261 263 265 267 268 269 271 273 273 275 276 276 277 278 278 278 278 277 276 276 276 276 276 276 276 275
217 227 233 237 241 244 244 241 240 240 242 245 247 249 250 250 251 252 256 256 257 259 260 261 263 264 266 268 270 271 273 273 274 276 277 278 278 278 279 278 278 277 277 276 277 277 276 276 275
227 231 237 239 245 247 247 245 244 245 247 248 249 250 251 251 252 253 254 256 258 260 261 262 263 264 267 269 271 272 273 274 275 276 277 278 279 279 281 280 280 279 279 278 278 279 279 278 276
240 239 241 244 248 252 253 252 250 249 249 251 251 250 252 253 253 254 256 257 259 260 261 262 264 265 268 269 271 272 273 274 276 277 278 278 280 281 282 281 280 280 280 280 279 279 279 279 278
254 249 249 250 251 254 255 257 254 254 254 253 253 253 254 255 256 256 258 258 260 261 262 263 265 267 268 270 271 272 273 274 276 277 278 279 281 282 283 282 281 281 281 281 280 279 279 279 279
264 262 262 261 260 259 259 261 261 258 257 256 255 256 256 257 258 259 260 259 261 262 263 264 265 267 269 270 271 273 274 275 276 277 278 280 282 283 284 284 283 282 283 282 282 281 280 279 279
275 274 275 274 271 269 267 266 265 262 261 260 258 258 259 260 261 261 261 261 262 263 264 265 266 268 269 270 271 273 274 275 276 277 278 280 281 282 284 285 284 284 284 284 283 282 281 280 281
282 281 278 278 277 278 274 270 269 266 266 264 263 262 262 263 263 263 263 263 264 264 265 265 267 268 270 270 271 272 275 276 277 278 279 281 282 283 285 286 285 285 284 285 285 284 282 282 282
287 286 280 280 282 281 278 278 277 273 271 269 267 266 265 266 267 267 266 266 266 266 266 267 268 269 270 271 271 273 275 276 278 279 280 281 282 283 284 285 286 286 285 285 284 284 284 283 282
289 287 287 284 282 284 283 282 281 279 276 274 272 271 271 271 270 269 268 268 268 268 268 268 268 270 271 272 273 274 276 277 279 280 281 281 283 283 284 284 285 285 285 284 284 284 285 284 283
289 287 288 287 285 284 286 287 285 283 281 278 276 275 274 272 272 272 271 270 270 270 270 271 271 272 273 274 276 277 278 278 279 280 281 282 283 283 284 283 284 284 285 285 285 285 285 285 285
Height
5778 5782 5786 5790 5794 5798 5804 5812 5817 5821 5825 5828 5832 5835 5839 5842 5845 5849 5850 5852 5855 5858 5859 5861 5862 5864 5865 5866 5868 5869 5869 5870 5870 5871 5871 5872 5872 5873 5873 5873 5874 5874 5874 5874 5874 5874 5874 5874 5875
5769 5774 5778 5782 5787 5792 5800 5807 5811 5815 5820 5823 5827 5831 5835 5837 5841 5843 5846 5849 5852 5854 5856 5858 5860 5861 5863 5864 5865 5866 5867 5868 5868 5869 5869 5870 5870 5871 5871 5871 5872 5872 5872 5872 5872 5873 5873 5873 5873
5761 5765 5771 5775 5780 5788 5796 5801 5805 5810 5815 5819 5823 5827 5831 5833 5837 5840 5843 5846 5849 5851 5853 5855 5857 5858 5860 5861 5862 5863 5864 5865 5866 5866 5867 5867 5868 5868 5869 5869 5869 5870 5870 5870 5870 5870 5870 5870 5870
5753 5758 5763 5770 5776 5784 5790 5795 5800 5804 5809 5813 5818 5822 5826 5830 5833 5836 5839 5842 5845 5847 5850 5851 5853 5855 5856 5858 5859 5860 5861 5862 5863 5863 5864 5865 5865 5866 5866 5866 5867 5867 5867 5867 5867 5868 5868 5868 5868
5745 5751 5757 5764 5771 5779 5784 5788 5793 5798 5803 5808 5813 5818 5822 5826 5829 5833 5836 5838 5841 5844 5846 5848 5850 5851 5853 5854 5856 5857 5858 5859 5860 5860 5861 5861 5862 5862 5863 5863 5863 5864 5864 5864 5864 5864 5864 5865 5865
5739 5745 5752 5759 5767 5773 5778 5782 5788 5793 5797 5803 5808 5813 5817 5821 5825 5829 5831 5834 5837 5840 5842 5844 5846 5848 5849 5851 5852 5853 5854 5855 5856 5856 5857 5858 5858 5859 5859 5859 5860 5860 5860 5860 5860 5860 5860 5861 5861
5734 5740 5747 5755 5761 5767 5773 5778 5784 5788 5793 5798 5803 5808 5812 5817 5820 5824 5827 5830 5833 5836 5838 5840 5842 5844 5845 5847 5848 5849 5850 5851 5852 5852 5853 5853 5854 5854 5855 5855 5855 5856 5856 5856 5856 5856 5856 5856 5856
5728 5736 5743 5749 5755 5762 5768 5773 5778 5783 5788 5793 5799 5803 5808 5812 5816 5819 5822 5826 5828 5831 5833 5836 5837 5839 5841 5842 5844 5845 5846 5847 5847 5848 5848 5849 5849 5850 5850 5850 5851 5851 5851 5851 5851 5851 5851 5852 5852
5724 5733 5738 5744 5750 5756 5762 5768 5773 5778 5783 5789 5794 5799 5803 5807 5811 5814 5818 5821 5824 5826 5829 5831 5833 5835 5836 5838 5839 5840 5841 5842 5842 5843 5843 5844 5844 5844 5845 5845 5845 5845 5846 5846 5846 5846 5846 5847 5847
5721 5728 5734 5739 5745 5751 5757 5763 5768 5774 5779 5784 5789 5794 5798 5802 5806 5809 5813 5816 5819 5822 5824 5826 5828 5830 5831 5832 5833 5834 5835 5836 5837 5837 5838 5838 5839 5839 5839 5839 5840 5840 5840 5840 5840 5841 5841 5841 5841
5718 5724 5730 5735 5741 5747 5753 5759 5764 5769 5775 5780 5785 5790 5794 5797 5801 5805 5808 5811 5814 5816 5818 5820 5822 5824 5825 5826 5828 5829 5829 5830 5831 5831 5832 5832 5833 5833 5833 5834 5833 5834 5834 5834 5834 5834 5835 5835 5835
5716 5722 5728 5734 5739 5744 5750 5755 5760 5765 5771 5776 5781 5785 5789 5792 5796 5800 5803 5806 5808 5811 5813 5815 5817 5818 5820 5821 5822 5823 5823 5824 5825 5825 5826 5826 5827 5827 5827 5827 5827 5827 5827 5827 5828 5828 5828 5828 5828
5715 5721 5726 5732 5736 5741 5746 5751 5756 5762 5768 5772 5776 5780 5784 5788 5791 5795 5798 5801 5803 5806 5808 5809 5811 5812 5814 5815 5815 5816 5817 5818 5819 5819 5819 5820 5820 5820 5821 5821 5820 5820 5820 5821 5821 5821 5821 5821 5821
5715 5720 5725 5730 5734 5739 5744 5749 5754 5759 5763 5768 5772 5776 5780 5783 5787 5790 5793 5796 5798 5800 5802 5803 5805 5806 5807 5809 5809 5810 5811 5811 5812 5812 5813 5813 5813 5813 5814 5814 5814 5813 5813 5813 5813 5813 5813 5813 5813
5714 5720 5724 5728 5733 5737 5742 5747 5751 5756 5759 5763 5768 5772 5776 5779 5782 5785 5788 5790 5793 5794 5796 5798 5799 5800 5801 5802 5803 5803 5804 5805 5805 5806 5806 5806 5806 5806 5806 5806 5806 5806 5805 5805 5805 5805 5805 5805 5805
5714 5719 5723 5728 5731 5736 5742 5745 5749 5752 5756 5760 5764 5768 5771 5774 5777 5780 5783 5785 5787 5789 5791 5792 5793 5794 5795 5795 5796 5797 5797 5798 5798 5799 5799 5799 5799 5799 5799 5798 5798 5797 5797 5797 5796 5796 5796 5796 5796
5714 5718 5722 5727 5730 5734 5738 5742 5746 5749 5753 5756 5760 5763 5766 5769 5772 5775 5777 5779 5781 5783 5785 5786 5787 5788 5788 5789 5789 5790 5791 5791 5791 5792 5792 5791 5791 5791 5790 5790 5789 5788 5788 5788 5787 5787 5787 5787 5787
5715 5718 5722 5726 5729 5732 5736 5740 5743 5746 5749 5753 5756 5759 5762 5765 5768 5770 5772 5774 5776 5778 5779 5780 5781 5781 5782 5782 5783 5784 5784 5784 5784 5784 5784 5784 5783 5783 5782 5781 5781 5780 5779 5778 5778 5777 5777 5777 5777
5715 5718 5722 5725 5728 5731 5733 5737 5740 5743 5746 5749 5752 5755 5757 5760 5763 5765 5767 5769 5770 5772 5773 5774 5775 5775 5775 5776 5776 5777 5777 5777 5777 5776 5776 5775 5775 5774 5773 5773 5772 5770 5769 5769 5768 5768 5767 5767 5767
5715 5718 5720 5724 5726 5729 5731 5734 5737 5740 5743 5746 5748 5750 5753 5755 5758 5760 5761 5763 5764 5766 5767 5767 5768 5768 5769 5769 5769 5769 5770 5769 5769 5769 5768 5767 5767 5766 5764 5763 5762 5761 5760 5759 5759 5758 5758 5757 5756
5715 5717 5720 5722 5724 5726 5729 5732 5734 5737 5739 5742 5744 5746 5748 5750 5752 5754 5756 5757 5758 5759 5760 5761 5761 5762 5762 5762 5762 5762 5762 5762 5761 5761 5760 5759 5758 5757 5755 5754 5752 5751 5750 5750 5749 5748 5747 5747 5745
5715 5716 5718 5720 5722 5724 5727 5729 5732 5733 5736 5738 5739 5741 5743 5745 5747 5748 5750 5751 5752 5753 5754 5754 5755 5755 5755 5755 5755 5755 5755 5754 5754 5753 5752 5751 5750 5748 5746 5744 5743 5742 5741 5740 5739 5738 5737 5736 5735
5714 5715 5717 5719 5720 5723 5724 5726 5729 5730 5731 5733 5735 5737 5738 5740 5741 5742 5744 5745 5745 5746 5747 5748 5748 5748 5748 5748 5748 5748 5747 5747 5746 5745 5744 5743 5741 5740 5738 5736 5734 5733 5732 5731 5730 5729 5727 5726 5725
5713 5715 5716 5717 5718 5721 5722 5723 5725 5726 5728 5729 5731 5732 5733 5735 5736 5737 5737 5738 5739 5740 5740 5741 5741 5741 5741 5741 5741 5740 5740 5739 5738 5737 5736 5735 5733 5731 5729 5727 5725 5724 5723 5721 5720 5719 5718 5717 5716
5713 5714 5715 5715 5716 5718 5719 5720 5722 5722 5723 5724 5726 5727 5728 5729 5730 5730 5731 5732 5732 5733 5733 5734 5734 5734 5734 5734 5733 5733 5732 5731 5731 5729 5728 5727 5725 5723 5721 5718 5717 5715 5713 5712 5711 5710 5709 5707 5706
5712 5713 5714 5714 5714 5715 5716 5717 5719 5719 5719 5720 5721 5722 5722 5723 5723 5724 5724 5724 5725 5725 5726 5726 5726 5726 5726 5726 5726 5725 5724 5724 5722 5721 5720 5718 5716 5715 5712 5710 5708 5706 5705 5703 5702 5700 5699 5698 5697
5711 5711 5712 5712 5712 5713 5713 5714 5715 5715 5715 5715 5716 5716 5717 5717 5717 5717 5717 5717 5718 5718 5718 5718 5718 5718 5718 5718 5717 5717 5716 5715 5714 5713 5711 5710 5708 5706 5704 5702 5700 5698 5696 5694 5693 5691 5690 5689 5687
5711 5710 5710 5710 5710 5710 5710 5711 5711 5711 5711 5711 5711 5711 5711 5711 5710 5710 5710 5710 5711 5711 5711 5711 5711 5711 5710 5709 5709 5708 5707 5706 5705 5704 5703 5701 5699 5697 5695 5693 5691 5689 5688 5686 5684 5683 5681 5679 5678
5709 5709 5708 5707 5707 5707 5707 5710 5707 5706 5706 5706 5706 5706 5705 5705 5704 5704 5704 5703 5703 5703 5703 5703 5703 5702 5702 5701 5700 5699 5699 5697 5696 5695 5693 5692 5690 5688 5686 5684 5682 5680 5679 5677 5675 5674 5672 5670 5668
5706 5706 5705 5705 5704 5703 5703 5707 5703 5702 5701 5701 5700 5700 5699 5699 5698 5697 5697 5696 5696 5696 5695 5695 5695 5694 5693 5692 5691 5690 5689 5688 5687 5685 5684 5682 5680 5679 5677 5675 5673 5672 5670 5668 5666 5665 5663 5661 5659